Wind_Speed
12 13 14 14 15 15 15 15 15 18 21 23 23 22 20 19 18 18 18 18 19 21 19 17 17 17 16 18 20 19 19 20 22 23 24 23 23 23 24 23 23 26
11 12 13 13 14 14 15 15 16 19 21 22 21 18 17 18 16 16 17 18 19 21 20 18 18 20 21 22 23 22 20 21 22 23 24 23 22 22 22 22 23 26
11 12 13 13 13 14 15 15 17 19 21 21 19 17 15 15 15 15 15 16 18 18 18 18 20 22 24 24 24 24 22 21 22 24 24 21 20 20 21 21 23 25
12 12 12 12 12 13 14 15 17 19 20 20 19 17 15 14 14 14 14 15 16 16 16 18 20 22 24 25 24 24 22 20 20 23 24 21 19 21 22 21 22 24
12 12 12 12 13 13 14 15 16 17 18 19 19 17 16 15 14 14 14 14 15 15 16 17 19 21 23 23 24 25 23 19 19 21 22 20 19 21 22 21 22 25
12 12 12 13 13 14 14 14 15 16 17 18 18 18 17 16 15 15 15 14 14 14 14 15 17 19 20 20 21 23 23 21 19 20 21 21 20 21 23 23 23 25
12 12 12 13 13 14 14 15 15 15 16 16 17 18 18 17 16 16 16 15 16 16 15 15 17 18 19 19 19 20 22 21 19 18 19 20 21 21 22 24 24 22
13 12 12 13 13 13 14 14 15 15 15 15 16 17 18 18 18 18 17 17 17 17 16 16 17 18 18 18 18 20 21 20 19 18 18 18 19 21 22 23 24 23
13 13 13 13 13 14 14 15 15 15 15 15 15 16 17 18 18 18 18 18 19 19 18 17 18 18 17 17 19 20 21 20 19 19 18 17 17 19 21 23 24 23
14 14 14 14 14 15 15 16 16 16 15 15 15 16 16 17 18 18 18 19 20 20 20 20 19 18 18 18 19 20 20 19 18 18 19 18 17 18 21 24 24 22
16 16 16 15 16 16 16 17 17 17 17 17 17 17 16 16 17 18 18 18 19 20 20 21 20 18 17 18 19 20 20 18 17 17 19 18 16 17 19 22 22 21
17 17 17 16 16 17 17 17 18 19 19 19 19 19 18 17 18 18 18 19 19 19 20 20 21 20 18 18 18 18 18 18 17 17 18 18 16 17 18 19 21 22
18 18 17 17 17 17 18 18 19 20 20 21 21 21 20 19 19 19 20 21 20 20 20 20 21 21 20 19 18 17 16 16 17 17 17 18 17 18 18 18 19 21
19 19 18 18 18 18 19 19 20 20 21 21 22 22 22 21 20 20 21 22 23 22 21 21 21 21 21 20 18 18 17 16 17 17 18 18 17 18 18 16 16 19
19 20 20 20 20 20 20 20 21 21 22 22 22 22 23 23 22 22 22 23 24 25 24 23 23 23 22 21 20 19 19 18 18 18 19 19 18 18 19 18 17 18
20 20 21 21 21 21 22 22 22 22 22 23 23 23 23 23 24 24 23 23 24 25 26 25 24 24 23 22 21 21 20 19 19 19 20 20 18 18 19 20 19 19
20 21 21 22 22 23 23 23 23 23 23 23 24 24 24 24 25 27 27 26 24 24 26 26 26 25 24 23 21 21 21 19 19 19 19 19 20 19 19 20 20 20
21 21 22 22 22 23 23 23 23 23 23 24 24 24 25 25 26 27 29 30 29 27 26 26 26 26 25 24 22 20 20 20 19 19 19 20 21 22 22 22 22 21
21 21 22 22 23 23 23 24 24 24 24 25 25 26 26 27 27 28 29 31 33 32 29 27 26 26 25 24 22 21 20 19 19 19 19 21 22 23 23 23 21 20
21 21 22 23 23 24 24 25 25 25 26 27 27 28 28 29 29 29 30 31 33 34 33 29 27 26 25 23 21 21 20 20 20 18 18 20 21 22 23 22 20 20
21 21 22 22 23 23 24 25 25 26 27 28 28 29 29 29 29 29 29 29 30 31 32 31 28 26 24 23 20 19 20 20 20 19 17 17 19 21 22 22 21 20
20 21 20 20 21 22 23 24 25 25 26 27 28 28 28 27 28 27 27 27 27 27 28 29 29 25 24 23 21 18 18 19 21 21 17 15 18 21 23 24 23 22
19 20 19 19 21 22 23 24 24 24 25 26 26 26 26 26 26 25 25 25 26 26 26 27 27 25 23 22 21 19 18 18 19 21 19 16 17 19 21 22 23 23
18 18 19 20 21 22 23 24 24 25 25 25 26 26 26 26 26 25 25 25 25 25 25 25 25 25 23 22 21 20 18 18 18 18 18 17 15 16 17 18 20 21
17 18 19 20 21 22 23 24 25 25 26 26 26 26 26 26 27 26 25 25 24 24 23 23 23 24 23 22 20 19 18 18 17 16 16 16 14 13 13 13 15 18
16 18 19 20 21 22 23 24 25 25 26 26 26 26 26 26 26 27 27 26 24 23 22 21 21 21 22 21 19 18 17 16 14 13 14 15 14 12 11 11 14 16
Wind_Direction
321 319 316 317 318 320 322 323 323 322 321 320 320 319 317 312 301 288 282 281 278 276 276 279 282 281 280 279 280 280 277 275 270 261 256 251 246 240 235 234 233 230
312 310 310 316 320 322 324 325 325 326 328 332 332 331 328 324 315 296 281 278 277 275 275 277 279 282 285 288 291 292 287 281 274 264 259 256 251 245 235 231 231 230
306 308 313 318 321 323 325 325 327 331 339 344 343 339 335 329 322 308 293 283 279 279 278 280 283 285 286 286 288 290 286 282 276 266 259 253 247 244 237 230 229 230
305 310 314 316 316 320 324 326 329 335 345 352 351 346 341 337 330 321 313 303 294 290 288 289 292 291 290 289 289 286 282 279 274 265 255 246 239 239 239 234 230 230
304 306 309 311 313 318 323 327 330 336 345 353 355 351 346 342 338 331 326 320 309 300 293 291 293 293 292 292 292 291 289 282 273 263 253 243 236 235 236 234 229 228
299 303 308 311 315 320 324 327 330 335 343 349 352 351 347 343 339 335 332 327 319 310 303 299 299 300 298 294 293 294 292 283 272 262 253 244 239 236 235 235 229 227
296 304 309 311 318 323 326 328 330 335 340 343 345 345 344 343 340 338 335 329 321 313 310 308 305 303 301 298 295 292 286 279 270 261 254 246 243 240 236 237 234 230
295 303 306 309 316 323 326 328 329 331 335 337 338 337 337 338 338 337 335 330 321 314 313 313 309 307 304 300 299 297 294 290 279 269 262 254 250 247 241 237 237 235
294 297 299 303 309 316 321 325 325 327 329 330 332 332 332 332 332 333 332 329 323 318 315 311 308 311 310 303 300 301 304 304 295 283 274 263 258 255 247 239 236 234
292 292 294 297 301 307 312 317 320 321 322 322 324 326 328 329 329 331 331 330 327 324 319 311 306 305 303 301 301 302 302 301 298 291 279 264 258 258 249 240 235 229
291 291 293 294 296 301 305 309 312 314 315 316 318 320 322 324 326 327 330 331 331 329 324 319 315 309 300 297 299 301 301 298 295 293 285 270 257 253 247 241 238 231
289 290 292 293 294 297 300 302 305 307 310 311 313 315 316 318 320 321 324 326 328 329 327 325 323 318 310 300 294 294 297 295 291 290 289 280 262 246 240 239 241 239
287 288 290 291 293 295 297 299 301 303 305 307 309 310 311 312 313 314 317 319 322 324 326 327 324 320 317 310 298 290 290 289 286 284 285 282 268 250 240 235 238 240
287 290 291 293 294 294 296 297 299 301 301 303 304 305 306 307 307 308 311 314 317 319 322 323 321 319 318 315 306 294 286 283 282 278 275 275 270 258 248 241 240 242
290 293 294 295 295 296 297 297 298 299 299 299 300 301 302 303 304 306 308 310 313 315 317 318 317 316 316 315 311 301 289 281 277 273 269 269 267 260 253 245 240 244
292 294 295 296 297 297 298 298 298 298 298 298 298 298 299 301 303 304 306 307 309 310 313 314 313 312 312 311 311 307 300 287 275 270 269 268 265 263 258 250 243 242
294 295 295 295 296 296 297 297 298 297 297 297 297 297 298 299 301 302 303 304 305 305 307 310 310 310 309 309 308 306 303 294 277 267 266 266 263 262 261 258 254 249
295 296 297 297 296 297 297 297 297 297 297 297 297 298 298 298 299 300 301 302 304 304 304 304 306 307 307 308 306 302 301 297 284 269 261 261 262 261 262 263 262 255
298 299 299 300 300 301 301 301 301 301 301 300 300 301 301 301 301 301 301 301 302 303 303 301 300 302 304 306 306 303 300 296 289 275 260 257 260 262 261 262 261 257
300 301 301 302 303 304 303 303 304 305 305 304 304 305 305 304 304 303 302 301 300 300 302 301 298 298 300 303 305 305 300 294 290 281 264 254 257 261 261 259 260 258
303 303 303 304 304 305 305 305 307 308 307 307 307 307 308 308 308 307 306 305 303 301 301 302 302 299 298 299 303 304 301 295 290 285 272 257 257 262 262 258 257 257
305 304 305 307 306 305 306 305 307 308 308 308 309 310 311 311 311 311 311 310 308 305 303 303 305 305 302 299 300 301 301 298 292 287 278 263 256 260 262 259 256 255
304 304 306 307 305 304 304 304 306 307 308 309 310 312 313 313 313 313 314 313 311 309 307 305 305 307 307 304 301 299 299 298 293 286 280 270 260 257 259 260 259 256
303 304 304 304 303 304 306 307 308 309 309 310 312 313 314 314 315 315 315 316 314 312 310 308 307 308 309 308 305 301 298 297 292 284 277 272 265 257 257 260 262 261
306 307 306 306 307 308 309 311 312 313 315 315 316 316 316 316 316 316 316 316 316 314 312 309 308 309 309 309 307 302 298 296 293 285 276 270 266 263 263 260 258 260
315 316 315 314 314 315 315 316 317 318 320 320 321 322 322 322 321 319 318 318 317 316 313 310 308 309 309 309 308 303 297 294 295 291 281 276 273 270 265 249 244 252
Height
3143 3142 3141 3141 3140 3139 3137 3136 3135 3133 3131 3129 3127 3125 3124 3123 3122 3122 3121 3121 3120 3119 3119 3120 3120 3120 3119 3118 3118 3118 3118 3117 3117 3117 3116 3116 3116 3116 3117 3118 3119 3121
3141 3140 3140 3139 3138 3137 3135 3134 3133 3131 3129 3127 3124 3123 3122 3121 3120 3119 3118 3118 3117 3117 3117 3118 3117 3117 3116 3116 3115 3115 3115 3114 3114 3114 3113 3113 3113 3113 3114 3114 3115 3118
3140 3139 3138 3137 3136 3135 3134 3132 3131 3129 3127 3125 3123 3121 3120 3119 3118 3117 3116 3116 3115 3115 3115 3116 3116 3115 3114 3113 3112 3111 3110 3110 3110 3111 3111 3111 3110 3110 3111 3111 3112 3114
3138 3137 3136 3135 3134 3133 3132 3131 3129 3127 3125 3123 3121 3120 3119 3117 3116 3115 3115 3114 3114 3114 3114 3114 3114 3113 3112 3111 3109 3107 3106 3106 3106 3106 3107 3108 3108 3107 3108 3108 3108 3111
3136 3135 3135 3134 3133 3132 3131 3129 3128 3126 3124 3122 3120 3119 3118 3117 3115 3114 3114 3113 3113 3112 3112 3112 3111 3110 3109 3109 3107 3105 3103 3102 3102 3103 3103 3105 3105 3105 3105 3105 3106 3108
3134 3134 3133 3132 3131 3130 3129 3128 3126 3125 3123 3121 3120 3118 3117 3116 3115 3114 3113 3113 3112 3111 3110 3110 3109 3108 3107 3106 3104 3102 3101 3100 3100 3100 3101 3102 3102 3102 3103 3103 3104 3105
3132 3132 3132 3131 3130 3129 3127 3126 3125 3123 3122 3120 3119 3117 3116 3115 3114 3113 3112 3112 3111 3110 3109 3108 3107 3106 3105 3103 3101 3099 3098 3097 3097 3097 3098 3098 3099 3099 3100 3101 3102 3103
3131 3131 3130 3129 3128 3127 3126 3125 3123 3122 3120 3119 3117 3116 3115 3114 3113 3112 3111 3110 3109 3108 3108 3107 3105 3104 3103 3101 3100 3098 3096 3096 3095 3095 3095 3096 3096 3097 3098 3099 3099 3100
3129 3129 3128 3127 3126 3125 3124 3123 3121 3120 3119 3118 3116 3115 3114 3113 3112 3111 3110 3109 3108 3107 3107 3105 3104 3102 3101 3099 3098 3097 3096 3095 3094 3093 3093 3094 3095 3095 3096 3096 3096 3097
3127 3127 3126 3125 3124 3122 3122 3121 3119 3119 3117 3116 3115 3114 3113 3111 3110 3109 3108 3107 3106 3105 3104 3103 3101 3100 3099 3097 3095 3094 3094 3093 3092 3092 3092 3091 3091 3092 3093 3093 3094 3095
3125 3125 3124 3123 3121 3120 3120 3118 3117 3117 3116 3114 3113 3112 3111 3110 3108 3107 3106 3105 3104 3103 3101 3100 3099 3098 3096 3095 3093 3092 3091 3091 3090 3090 3089 3089 3089 3089 3090 3091 3092 3093
3123 3123 3122 3121 3120 3119 3118 3116 3115 3114 3113 3112 3111 3110 3109 3108 3107 3105 3104 3103 3102 3100 3099 3097 3096 3095 3094 3093 3091 3090 3089 3088 3087 3087 3087 3087 3087 3087 3087 3088 3090 3090
3121 3120 3120 3119 3118 3117 3116 3114 3113 3112 3111 3110 3109 3108 3107 3106 3105 3103 3102 3100 3099 3098 3097 3095 3093 3092 3091 3090 3089 3088 3087 3086 3085 3085 3085 3085 3084 3084 3085 3086 3088 3088
3119 3118 3117 3117 3116 3115 3113 3112 3111 3110 3109 3108 3107 3105 3104 3103 3102 3101 3099 3098 3097 3095 3094 3093 3090 3088 3087 3087 3086 3085 3085 3084 3083 3083 3083 3082 3082 3082 3082 3083 3085 3085
3117 3116 3115 3114 3113 3112 3111 3110 3109 3108 3106 3105 3104 3103 3101 3100 3099 3098 3097 3095 3094 3092 3091 3090 3088 3085 3084 3083 3082 3082 3081 3081 3081 3080 3080 3079 3079 3079 3079 3080 3081 3082
3115 3114 3113 3112 3111 3110 3109 3107 3106 3105 3104 3103 3101 3100 3099 3097 3096 3095 3094 3093 3092 3090 3088 3087 3085 3083 3081 3079 3078 3077 3077 3077 3077 3077 3077 3076 3077 3077 3076 3076 3077 3078
3113 3112 3111 3110 3109 3107 3106 3105 3104 3102 3101 3100 3099 3097 3096 3095 3093 3092 3090 3089 3089 3087 3086 3084 3083 3081 3079 3077 3075 3074 3073 3073 3073 3073 3074 3073 3073 3073 3073 3073 3073 3075
3111 3109 3108 3107 3106 3105 3104 3102 3101 3100 3099 3097 3096 3095 3093 3092 3091 3089 3087 3085 3084 3084 3083 3081 3080 3078 3076 3074 3073 3071 3070 3069 3069 3069 3070 3070 3070 3070 3070 3070 3070 3071
3108 3107 3106 3105 3103 3102 3101 3100 3098 3097 3096 3095 3093 3092 3090 3089 3087 3086 3084 3082 3080 3079 3079 3078 3077 3075 3073 3072 3070 3069 3067 3065 3065 3065 3066 3066 3066 3066 3066 3067 3068 3068
3105 3104 3103 3102 3101 3100 3098 3097 3095 3094 3092 3091 3090 3088 3087 3085 3084 3083 3081 3079 3077 3075 3074 3073 3073 3071 3070 3068 3067 3066 3064 3063 3061 3061 3062 3062 3062 3063 3064 3065 3065 3066
3103 3102 3101 3100 3098 3097 3095 3094 3093 3091 3089 3088 3086 3085 3083 3082 3080 3079 3077 3076 3074 3072 3070 3069 3068 3068 3066 3065 3064 3063 3062 3060 3059 3058 3058 3059 3059 3060 3061 3062 3062 3063
3101 3100 3099 3098 3096 3095 3093 3091 3090 3088 3086 3085 3083 3082 3080 3078 3077 3075 3074 3072 3071 3069 3067 3065 3064 3064 3063 3062 3061 3060 3059 3058 3056 3055 3055 3055 3055 3055 3056 3057 3058 3059
3099 3098 3097 3095 3094 3092 3090 3089 3087 3086 3084 3082 3081 3079 3077 3076 3074 3073 3071 3069 3068 3066 3065 3063 3061 3060 3060 3058 3057 3057 3056 3055 3053 3052 3051 3051 3051 3051 3052 3053 3054 3055
3097 3096 3094 3093 3091 3090 3088 3086 3085 3083 3082 3080 3078 3076 3075 3073 3071 3070 3068 3066 3065 3063 3062 3060 3059 3058 3057 3055 3054 3053 3052 3052 3051 3050 3048 3048 3048 3048 3048 3049 3049 3050
3095 3094 3092 3091 3089 3088 3086 3084 3083 3081 3080 3078 3076 3075 3073 3071 3069 3067 3065 3064 3062 3060 3059 3058 3056 3055 3054 3052 3051 3050 3049 3048 3048 3047 3046 3045 3046 3046 3046 3046 3046 3047
3093 3092 3090 3089 3088 3086 3084 3083 3081 3080 3078 3076 3075 3073 3071 3069 3067 3065 3063 3061 3060 3058 3057 3055 3054 3053 3051 3050 3049 3047 3046 3045 3045 3045 3044 3044 3044 3044 3044 3044 3044 3044